Regional Weather Roundup
Issued by NWS

Home | Current Version | Previous Version | Text Only | Print | Product List | Glossary On
Versions: 1 2 3 4 5 6 7 8 9 10 11 12 13 14 15 16 17 18 19 20 21 22 23 24 25 26 27 28 29 30 31 32 33 34 35 36 37 38 39 40 41 42 43 44 45 46 47 48 49 50
273
ASUS43 KMKX 221100
RWRWI

WISCONSIN REGIONAL WEATHER ROUNDUP
NATIONAL WEATHER SERVICE MILWAUKEE/SULLIVAN WI
600 AM CDT SAT JUL 22 2017

NOTE: "FAIR" INDICATES FEW OR NO CLOUDS BELOW 12,000 FEET WITH NO
SIGNIFICANT WEATHER AND/OR OBSTRUCTIONS TO VISIBILITY.

WIZ001-002-006>008-014>016-023>028-221200-
NORTHWEST WISCONSIN

CITY           SKY/WX    TMP DP  RH WIND       PRES   REMARKS
SUPERIOR ARPT  NOT AVBL
ASHLAND        CLOUDY    61  60  97 SW5       29.81S FOG
HAYWARD        CLOUDY    64  63  96 CALM      29.85R
SIREN          PTCLDY    61  60  97 CALM      29.83R
CUMBERLAND     CLOUDY    61  61 100 CALM      29.83R
RICE LAKE      CLOUDY    63  62  97 CALM      29.84R FOG
CHETEK         CLOUDY    62  62 100 CALM      29.82R
LADYSMITH      PTCLDY    64  63  97 CALM      29.85R
EAU CLAIRE     NOT AVBL
MENOMONIE      MOCLDY    66  65  97 CALM      29.81S
NEW RICHMOND   MOCLDY    65  64  97 CALM      29.82R
OSCEOLA        MOCLDY    65  65 100 CALM      29.84R
$$

WIZ003>005-009-010-017-018-221200-
NORTH CENTRAL WISCONSIN

CITY           SKY/WX    TMP DP  RH WIND       PRES   REMARKS
MANITOWISH WTR CLOUDY    65  65 100 CALM      29.83S
ARBOR VITAE    CLOUDY    67  65  94 CALM      29.84R
WOODRUFF       CLOUDY    67  65  94 CALM      29.84R
RHINELANDER    CLOUDY    64  62  93 SW3       29.86R
EAGLE RIVER    CLOUDY    64  59  83 CALM      29.84S
LAND O LAKES   CLOUDY    65  63  93 CALM      29.85S
PHILLIPS       CLOUDY    65  65 100 CALM      29.84R
TOMAHAWK         N/A     64  61  91 CALM      29.85R
MEDFORD        CLOUDY    66  66  99 S3        29.84R FOG
MERRILL        CLOUDY    65  65 100 CALM      29.84R FOG
$$

WIZ029-030-035-036-043>047-221200-
CENTRAL WISCONSIN

CITY           SKY/WX    TMP DP  RH WIND       PRES   REMARKS
WAUSAU         CLOUDY    66  65  96 S8        29.81R FOG
MOSINEE        FOG       64  64 100 S6        29.84R VSB 1/2
MARSHFIELD     FOG       67  66  97 CALM      29.82R VSB 1/4
STEVENS POINT  CLOUDY    64  64 100 E3        29.83R FOG
WAUPACA        CLOUDY    68  65  90 CALM      29.82R
WAUTOMA        CLOUDY    65  64  97 CALM      29.82R
WISC RAPIDS    FOG       66  66 100 CALM      29.83R VSB 1
CAMP DOUGLAS   FOG       66  66 100 E3        29.80R VSB 1/4
$$

WIZ011>013-019>022-031-037>040-048>050-221200-
NORTHEAST WISCONSIN

CITY           SKY/WX    TMP DP  RH WIND       PRES   REMARKS
ANTIGO         CLOUDY    63  63  98 SE3       29.84R
SHAWANO        CLOUDY    66  58  75 CALM      29.81R
OCONTO         MOCLDY    65  62  90 NE3       29.81S
STURGEON BAY     N/A     68  62  81 E6        29.81F
GREEN BAY      MOCLDY    67  64  90 CALM      29.79F
MANITOWOC      CLOUDY    68  63  83 E5        29.81S
APPLETON       CLOUDY    66  55  68 CALM      29.79R
CLINTONVILLE   CLOUDY    64  55  72 CALM      29.81R
OSHKOSH        CLOUDY    68  62  81 E5        29.79S
$$

WIZ032>034-041-042-053>061-221200-
SOUTHWEST WISCONSIN

CITY           SKY/WX    TMP DP  RH WIND       PRES   REMARKS
LA CROSSE      CLOUDY    73  70  90 S3        29.77S
SPARTA         CLOUDY    66  66  99 W3        29.80R
VIROQUA        CLOUDY    68  68 100 CALM      29.81R VSB 1/2
BOSCOBEL       CLOUDY    71  69  93 CALM      29.78S FOG
PRAIRIE DU CHI CLOUDY    70  69  96 CALM      29.77R
PLATTEVILLE    CLOUDY    69  69 100 S9        29.77F
$$

WIZ056-057-062-063-064-067-068-221200-
SOUTH CENTRAL WISCONSIN

CITY           SKY/WX    TMP DP  RH WIND       PRES   REMARKS
REEDSBURG      FOG       66  66 100 CALM      29.80R VSB 1/2
BARABOO/DELLS  CLOUDY    66  65  96 CALM      29.81R FOG
LONE ROCK      FOG       68  67  96 E5        29.78F VSB 3/4
MINERAL POINT  RAIN      70  70 100 SW6       29.80R
MADISON        DRZL/FOG  68  67  96 S6        29.79R VSB 1
MIDDLETON      CLOUDY    68  68 100 CALM      29.81R VSB 3/4
WATERTOWN      CLOUDY    65  65 100 CALM      29.80R FOG
MONROE         CLOUDY    68  66  94 CALM      29.79R
JANESVILLE     CLOUDY    68  68 100 SW12G17   29.80R
$$

WIZ051-052-058>065-066-070>072-221200-
SOUTHEAST WISCONSIN

CITY           SKY/WX    TMP DP  RH WIND       PRES   REMARKS
MILWAUKEE      CLOUDY    70  68  93 W5        29.78R
WAUKESHA       CLOUDY    64  63  94 CALM      29.81R
MILWAUKEE/TIMM CLOUDY    64  61  88 W5        29.80R
RACINE         CLOUDY    71  71 100 W6        29.80R
KENOSHA        CLOUDY    71  69  93 W6        29.79R
FOND DU LAC    CLOUDY    67  61  81 CALM      29.80R
SHEBOYGAN      CLOUDY    67  66  97 NE5       29.79S
WEST BEND      CLOUDY    63  63 100 CALM      29.80R
JUNEAU         CLOUDY    65  63  94 CALM      29.81S
$$

LSZ147-162-221200-
LAKE SUPERIOR

STATION/POSITION TIME  TEMP    WIND        PRES    WAVE
                       AIR SEA DIR/SP/G            HT/PER
                 (UTC) (F)     (DEG/KT/KT) (MB)    (FT/S)
W MID LAKE BUOY  0950   50 48   20/ 12/ 14 1009.1S   1/ 3
DEVILS ISLAND    1000   60     270/  4/  5 1009.2S
SAXON HARBOR     1030   63     190/  2/  4 1008.5F
$$

LMZ867-665-643>646-221200-
LAKE MICHIGAN

STATION/POSITION TIME  TEMP    WIND        PRES    WAVE
                       AIR SEA DIR/SP/G            HT/PER
                 (UTC) (F)     (DEG/KT/KT) (MB)    (FT/S)
CHAMBERS ISLAND  1040   69     110/  3/  4 1008.8F
S GREEN BAY BUOY 1030   71 73  140/  6/  6 1009.1F
N MID LAKE BUOY  0950   67 66  200/  6/  6 1010.8F   1/ 3
NORTHPORT PIER   1040   69     160/  3/  4 1009.8R
KEWAUNEE LAKESHO 1030   67      90/  3/  4 1009.0F
SHEBOYGAN LAKESH 1000   67      70/  3/  3 1008.0F
PORT WASHINGTON  1040   68     340/  3/  4 1009.5R
ATWATER BUOY     0909   68 68  310/  4/  6 1008.6
MILWAUKEE LAKESH 1030   69     240/  7/  8   N/A
S MID LAKE BUOY  0950   71 70  210/  8/ 10 1008.0F   2/ 4
KENOSHA   LAKESH 1000   73     270/  8/ 12 1008.5
$$

TC  - TEMPERATURE IN CELSIUS
VSB - VISIBILITY IN STATUTE MILES
WCI - WIND CHILL INDEX
HX  - HEAT INDEX





USA.gov is the U.S. government's official web portal to all federal, state and local government web resources and services.